Location: Serpentine
(32.3617°S, 115.9768°E)
Time: 02:49:43
(UTC+08:00)

Tiangong - Visible Passes

Search period start: 07 December 2021 00:00
Search period end: 17 December 2021 00:00
Orbit: 380 x 384 km, 41.5° (Epoch: 06 December)

Date Brightness Start Highest point End Pass type
(mag) Time Alt. Az. Time Alt. Az. Time Alt. Az.
10 Dec 3.3 04:13:37 10° N 04:15:46 17° NE 04:17:56 10° E visible
12 Dec 2.2 03:49:47 22° NNW 03:51:14 33° NE 03:54:08 10° ESE visible
13 Dec 3.7 02:51:58 14° ENE 02:51:58 14° ENE 02:52:52 10° E visible
13 Dec 1.4 04:24:09 10° WNW 04:27:18 59° SSW 04:30:28 10° SE visible
14 Dec 1.0 03:26:13 58° NNW 03:26:39 69° NNE 03:29:49 10° ESE visible
15 Dec 3.9 02:28:15 15° E 02:28:15 15° E 02:28:57 10° E visible
15 Dec 2.3 04:00:23 14° W 04:02:49 35° SSW 04:05:47 10° SE visible
16 Dec 1.6 03:02:21 57° S 03:02:21 57° S 03:05:13 10° SE visible
16 Dec 3.5 04:36:51 10° WSW 04:39:13 19° S 04:41:34 10° SE visible
